, FL

(GMT )
Crestview

Weather History for KEGI - November, 2013

Change the Weather History Date:

Sunday, November 3, 2013

  Actual Average Record
Temperature  
Mean Temperature 56 °F -  
Max Temperature 69 °F - - ()
Min Temperature 43 °F - - ()
Degree Days  
Heating Degree Days 10    
Growing Degree Days 6 (Base 50)    
Moisture  
Dew Point 40 °F    
Average Humidity 62    
Maximum Humidity 87    
Minimum Humidity 33    
Precipitation  
Precipitation 0.00 in - - ()
Sea Level Pressure  
Sea Level Pressure 30.17 in    
Wind  
Wind Speed 7 mph (NNE)    
Max Wind Speed 12 mph    
Max Gust Speed 20 mph    
Visibility 10 miles    
Events      
T = Trace of Precipitation, MM = Missing Value Source: NWS Daily Summary

Daily Weather History Graph

Daily Weather History Graph

Search for Another Location

Airport or City:

Trip Planner

Search our weather history database for the weather conditions in past years. The results will help you decide how hot, cold, wet, or windy it might be!

Date:

Astronomy

Nov. 03, 2013 Rise Set
Actual Time 6:02 AM CST 4:56 PM CST
Civil Twilight 5:37 AM CST 5:21 PM CST
Nautical Twilight 5:09 AM CST 5:49 PM CST
Astronomical Twilight 4:40 AM CST 6:18 PM CST
Moon 6:04 AM CST (11/3) 5:12 PM CST (11/3)
Length of Visible Light 11h 43m
Length of Day
10h 53m
New Moon, 0% of the Moon is Illuminated
Nov 3
New Moon
Nov 9
First Quarter
Nov 17
Full
Nov 25
Last Quarter
Dec 2
New

Hourly Weather History & Observations

Time (CST) Temp. Windchill Dew Point Humidity Pressure Visibility Wind Dir Wind Speed Gust Speed Precip Events Conditions
12:58 AM 53.4 °F - 40.8 °F 62% 30.11 in 10.0 mi North 9.2 mph - N/A   Clear
1:58 AM 51.6 °F - 40.8 °F 67% 30.12 in 10.0 mi North 6.9 mph - N/A   Clear
1:58 AM 48.9 °F - 40.6 °F 73% 30.13 in 10.0 mi NNW 3.5 mph - N/A   Clear
2:58 AM 45.9 °F 42.9 °F 39.9 °F 80% 30.14 in 10.0 mi NNW 5.8 mph - N/A   Clear
3:58 AM 44.2 °F 41.0 °F 39.4 °F 83% 30.15 in 10.0 mi North 5.8 mph - N/A   Clear
4:58 AM 45.7 °F 41.0 °F 40.3 °F 81% 30.16 in 10.0 mi North 9.2 mph - N/A   Clear
5:58 AM 43.7 °F 40.3 °F 39.4 °F 85% 30.17 in 10.0 mi North 5.8 mph - N/A   Clear
10:58 AM 65.5 °F - 37.2 °F 35% 30.21 in 10.0 mi NNE 11.5 mph 19.6 mph N/A   Clear
11:58 AM 66.9 °F - 37.6 °F 34% 30.18 in 10.0 mi ENE 10.4 mph - N/A   Clear
12:58 PM 68.2 °F - 37.6 °F 33% 30.16 in 10.0 mi North 10.4 mph - N/A   Clear
1:58 PM 68.9 °F - 38.7 °F 33% 30.15 in 10.0 mi North 6.9 mph - N/A   Clear
2:58 PM 68.5 °F - 38.1 °F 33% 30.15 in 10.0 mi ENE 6.9 mph - N/A   Clear
3:58 PM 67.6 °F - 37.6 °F 33% 30.16 in 10.0 mi NE 8.1 mph - N/A   Clear
4:58 PM 63.0 °F - 39.7 °F 42% 30.17 in 10.0 mi NE 2.3 mph - N/A   Clear
5:58 PM 53.2 °F - 42.4 °F 67% 30.18 in 10.0 mi ENE 2.3 mph - N/A   Clear
6:58 PM 49.1 °F - 42.6 °F 78% 30.20 in 10.0 mi ENE 2.3 mph - N/A   Clear
7:58 PM 47.5 °F - 42.1 °F 82% 30.21 in 10.0 mi ENE 3.5 mph - N/A   Clear
8:58 PM 46.8 °F - 39.6 °F 76% 30.22 in 10.0 mi ENE 3.5 mph - N/A   Clear
9:58 PM 43.0 °F 41.3 °F 39.2 °F 86% 30.24 in 10.0 mi NNE 3.5 mph - N/A   Clear
10:58 PM 43.5 °F - 39.7 °F 87% 30.24 in 10.0 mi Calm Calm - N/A   Clear